Regional Weather Roundup
Issued by NWS

Home | Current Version | Previous Version | Text Only | Print | Product List | Glossary On
Versions: 1 2 3 4 5 6 7 8 9 10 11 12 13 14 15 16 17 18 19 20 21 22 23 24 25 26 27 28 29 30 31 32 33 34 35 36 37 38 39 40 41 42 43 44 45 46 47 48 49 50
000
ASUS43 KIND 301309
RWRIN

WEATHER ROUNDUP FOR INDIANA
NATIONAL WEATHER SERVICE INDIANAPOLIS IN
900 AM EDT FRI SEP 30 2016

NOTE: "FAIR" INDICATES FEW OR NO CLOUDS BELOW 12,000 FEET WITH NO
SIGNIFICANT WEATHER AND/OR OBSTRUCTIONS TO VISIBILITY.

* - STATION DOES NOT REPORT WEATHER SUCH AS PRECIPITATION OR FOG.

+ - STATION NOT QUALITY CONTROLLED BY THE NATIONAL WEATHER SERVICE.
    USE DATA WITH CAUTION...ESPECIALLY DEWPOINT AND RELATIVE
    HUMIDITY OBSERVATIONS.

INZ001>003-010>013-019-020-301400-
NORTHWEST INDIANA

CITY           SKY/WX    TMP DP  RH WIND       PRES   REMARKS
KNOX *+        CLOUDY    59  46  63 NE10G17   30.10R
LA PORTE +     CLOUDY   N/A N/A N/A NE10      30.12R
MICHIGAN CITY+ CLOUDY    59  59 100 MISG      30.12S
MONTICELLO +   CLOUDY    60  56  88 NE6       30.07R
RENSSELAER +   CLOUDY    61  59  94 N7        30.08F
VALPARAISO     CLOUDY    60  58  92 VRB7      30.11R

$$

LMZ046-743>745-301400-
SOUTHERN LAKE MICHIGAN

STATION/POSITION TIME  TEMP    WIND        PRES    WAVE
                       AIR SEA DIR/SP/G            HT
                 (UTC) (F)     (DEG/KT/KT) (MB)    (FT)
BURNS HARBOR     1240   62      40/ 24/ 26 1019.6F
MICHIGAN CITY    1240   60      10/ 21/ 23   N/A
5NW MICH CITY    1250   62 64   40/ 16/ 21   N/A     6

$$

INZ004-005-014>016-021>024-301400-
NORTH CENTRAL INDIANA

CITY           SKY/WX    TMP DP  RH WIND       PRES   REMARKS
ELKHART        CLOUDY    61  59  94 E10       30.11R FOG
GOSHEN         LGT RAIN  61  58  90 N12       30.10R FOG
LOGANSPORT +   HVY RAIN  59  59 100 NE3       30.08R
PERU/GRISSOM   LGT RAIN  60  60 100 NE13      30.04S FOG
ROCHESTER +    CLOUDY    63  63 100 NE7       30.08S
SOUTH BEND     CLOUDY    60  58  92 NE12      30.12R
WARSAW +       DRIZZLE   59  59 100 NE9       30.09R

$$

INZ006>009-017-018-025>027-301400-
NORTHEAST INDIANA

CITY           SKY/WX    TMP DP  RH WIND       PRES   REMARKS
ANGOLA *+        N/A     61  48  63 E7        30.10S
AUBURN +       CLOUDY    61  55  82 NE8       30.10R
FORT WAYNE     CLOUDY    61  58  90 NE13      30.07F
HUNTINGTON +   CLOUDY   N/A N/A N/A NE5       30.06F HAZE
KENDALLVILLE + CLOUDY    59  58  96 E8        30.10S

$$

INZ028-029-035-036-043>045-051>053-301400-
WEST CENTRAL INDIANA

CITY           SKY/WX    TMP DP  RH WIND       PRES   REMARKS
CRAWFORDSVL +  HVY RAIN  58  58 100 N3        30.05S
GREENCASTLE +  CLOUDY    59  59 100 N3        30.04S FOG
LAFAYETTE      CLOUDY    60  59  96 N8        30.05S
TERRE HAUTE    LGT RAIN  60  58  92 N7        30.04S FOG

$$

INZ030>032-037>040-046>048-054>057-064-065-301400-
CENTRAL INDIANA

CITY           SKY/WX    TMP DP  RH WIND       PRES   REMARKS
ANDERSON       CLOUDY    57  57 100 CALM      30.04  FOG
COLUMBUS       CLOUDY    57  57 100 N3        30.03R
FISHERS *+     PTSUNNY   57  57 100 CALM      30.04S
FRANKFORT +    RAIN      62  61  97 CALM      30.07R
GREENWOOD *+   MOSUNNY   61  59  94 E3        30.04R
INDIANAPOLIS   PTSUNNY   61  58  90 N7        30.03R
-EAGLE CREEK   PTSUNNY   61  58  90 N5        30.03R
KOKOMO *+      CLOUDY    61  59  94 NE12      30.06S FOG
MARION +       CLOUDY    59  58  97 NE5       30.05S FOG
MT COMFORT *+  PTSUNNY   57  57 100 N5        30.04S
SHELBYVILLE    PTSUNNY   59  56  89 N5        30.02R FOG
ZIONSVILLE +   RAIN      58  57  98 N3        30.05F

$$

INZ033-034-041-042-049-050-058-059-301400-
EAST CENTRAL INDIANA

CITY           SKY/WX    TMP DP  RH WIND       PRES   REMARKS
MUNCIE         CLOUDY    60  58  92 CALM      30.03F FOG

$$

INZ060-061-067>069-081>083-085>088-301400-
SOUTHWEST INDIANA

CITY           SKY/WX    TMP DP  RH WIND       PRES   REMARKS
EVANSVILLE     CLOUDY    60  57  89 N5        30.02F FOG
HUNTINGBURG *+   N/A     55  52  88 E6        30.02S
WASHINGTON +   CLOUDY   N/A N/A N/A MISG      30.01S

$$

INZ062-063-066-070>080-084-089>092-301400-
SOUTH CENTRAL AND SOUTHEAST INDIANA

CITY           SKY/WX    TMP DP  RH WIND       PRES   REMARKS
BLOOMINGTON    PTSUNNY   59  56  89 NE3       30.03R
MADISON *+     CLOUDY    55  54  94 CALM      30.05R
NORTH VERNON + CLOUDY   N/A N/A N/A CALM      30.03S HAZE
SEYMOUR +      LGT RAIN  59  57  94 CALM      30.03R

$$




USA.gov is the U.S. government's official web portal to all federal, state and local government web resources and services.